TimeCST,TemperatureF,Dew PointF,Humidity,Sea Level PressureIn,VisibilityMPH,Wind Direction,Wind SpeedMPH,Gust SpeedMPH,PrecipitationIn,Events,Conditions,WindDirDegrees,DateUTC
12:53 AM,48.0,44.1,86,29.96,10.0,WNW,3.5,-,N/A,,Overcast,290,2012-11-07 06:53:00
1:53 AM,46.9,43.0,86,29.94,10.0,WNW,5.8,-,N/A,,Mostly Cloudy,290,2012-11-07 07:53:00
2:05 AM,48.2,42.8,82,29.94,10.0,WNW,8.1,-,N/A,,Overcast,300,2012-11-07 08:05:00
2:35 AM,48.2,42.8,82,29.93,10.0,WNW,8.1,-,N/A,,Overcast,300,2012-11-07 08:35:00
2:53 AM,46.9,41.0,80,29.93,10.0,WNW,8.1,-,N/A,,Overcast,290,2012-11-07 08:53:00
3:53 AM,46.9,41.0,80,29.94,10.0,WNW,6.9,-,N/A,,Mostly Cloudy,300,2012-11-07 09:53:00
4:53 AM,46.0,39.9,79,29.95,10.0,WNW,6.9,-,N/A,,Mostly Cloudy,300,2012-11-07 10:53:00
5:53 AM,42.1,37.9,85,29.96,6.0,WNW,3.5,-,N/A,,Partly Cloudy,290,2012-11-07 11:53:00
6:53 AM,42.1,37.9,85,29.97,6.0,West,3.5,-,N/A,,Partly Cloudy,280,2012-11-07 12:53:00
7:53 AM,46.0,41.0,83,29.99,7.0,West,6.9,-,N/A,,Scattered Clouds,280,2012-11-07 13:53:00
8:53 AM,48.0,41.0,77,29.99,10.0,WNW,5.8,-,N/A,,Mostly Cloudy,290,2012-11-07 14:53:00
9:53 AM,52.0,41.0,66,29.99,10.0,Variable,5.8,-,N/A,,Mostly Cloudy,0,2012-11-07 15:53:00
10:07 AM,51.8,39.2,62,29.99,10.0,NNW,5.8,-,N/A,,Mostly Cloudy,340,2012-11-07 16:07:00
10:53 AM,52.0,39.0,61,29.98,10.0,NNW,8.1,-,N/A,,Overcast,330,2012-11-07 16:53:00
11:07 AM,53.6,39.2,58,29.97,10.0,North,8.1,-,N/A,,Overcast,350,2012-11-07 17:07:00
11:24 AM,53.6,39.2,58,29.97,10.0,Variable,4.6,-,N/A,,Mostly Cloudy,0,2012-11-07 17:24:00
11:53 AM,53.1,39.0,59,29.95,10.0,Calm,Calm,-,N/A,,Overcast,0,2012-11-07 17:53:00
12:53 PM,50.0,41.0,71,29.95,8.0,NNW,4.6,-,0.01,Rain,Light Rain,330,2012-11-07 18:53:00
1:53 PM,46.9,39.9,77,29.97,10.0,NW,16.1,28.8,0.00,Rain,Light Rain,320,2012-11-07 19:53:00
2:19 PM,44.6,39.2,81,29.98,3.0,NNW,13.8,21.9,0.02,Rain,Rain,340,2012-11-07 20:19:00
2:40 PM,44.6,39.2,81,29.99,2.5,North,8.1,-,0.06,Rain,Rain,360,2012-11-07 20:40:00
2:53 PM,45.0,41.0,86,30.00,7.0,NNW,5.8,-,0.07,Rain,Light Rain,340,2012-11-07 20:53:00
3:53 PM,46.9,42.1,83,30.02,10.0,NW,6.9,-,0.01,,Mostly Cloudy,320,2012-11-07 21:53:00
4:53 PM,45.0,41.0,86,30.04,10.0,WNW,5.8,-,N/A,,Clear,300,2012-11-07 22:53:00
5:53 PM,44.1,39.9,85,30.08,10.0,NW,4.6,-,N/A,,Clear,320,2012-11-07 23:53:00
6:53 PM,42.1,39.0,89,30.10,10.0,Calm,Calm,-,N/A,,Partly Cloudy,0,2012-11-08 00:53:00
7:53 PM,42.1,39.0,89,30.11,10.0,Calm,Calm,-,N/A,,Mostly Cloudy,0,2012-11-08 01:53:00
8:53 PM,43.0,39.0,86,30.13,10.0,Calm,Calm,-,N/A,,Overcast,0,2012-11-08 02:53:00
9:53 PM,43.0,39.9,89,30.13,10.0,NNW,3.5,-,N/A,,Overcast,330,2012-11-08 03:53:00
10:53 PM,39.0,36.0,89,30.13,7.0,NW,4.6,-,N/A,,Partly Cloudy,320,2012-11-08 04:53:00
11:53 PM,37.9,35.1,89,30.14,4.0,NW,4.6,-,N/A,,Clear,310,2012-11-08 05:53:00